Wind_Speed
33 32 32 32 30 30 32 32 32 32 35 37 37 36 37 38 40 42 39 32 30 38 47 46 43 44 45 48 45 35 36 45 51 52 51 47 47 47 45 45 44 42 40 38 37 35 35 36 36 38 39 39 40 40 41 42 40 38 37 36 36 35 35 34 33 32 33 35 36 37 37 37 38 40 40 40 40 41 41 41 42 43 44 46 48 50
36 34 34 33 32 33 33 33 36 37 38 39 40 40 40 42 46 47 41 36 36 41 47 48 47 46 46 47 48 41 36 40 48 52 52 50 47 45 45 46 45 42 40 39 38 36 35 35 38 40 39 39 40 40 41 41 40 39 38 37 36 36 35 35 34 33 33 35 36 37 38 38 39 40 41 41 41 41 41 42 42 43 45 46 46 48
38 38 37 35 37 37 34 36 40 40 41 42 43 43 42 43 47 48 43 38 37 42 49 51 48 47 48 48 48 46 41 38 43 51 53 51 47 45 45 46 45 44 42 41 39 37 35 36 38 40 40 40 40 40 41 41 40 39 39 38 37 37 36 36 35 35 35 35 37 38 39 40 40 40 41 42 42 42 42 42 43 44 44 46 47 48
42 42 40 39 42 40 37 39 42 42 44 44 45 45 45 46 49 49 44 39 40 46 51 52 48 47 50 51 48 47 46 41 42 48 52 51 49 45 45 46 45 45 44 42 41 38 36 38 39 40 42 41 40 41 42 41 41 40 39 39 39 38 37 37 36 36 36 36 37 38 39 41 41 42 42 42 43 43 43 43 44 45 45 46 47 48
45 44 44 44 45 43 42 43 44 45 46 46 47 47 48 49 49 49 46 42 46 52 52 50 49 49 52 52 49 48 49 47 45 47 50 52 51 47 46 46 46 46 45 44 43 40 39 40 39 40 43 42 41 42 42 42 42 41 41 40 40 40 39 38 38 38 38 38 38 39 40 41 43 43 44 44 45 44 44 45 45 46 46 46 47 49
47 45 47 48 46 47 47 47 47 48 49 49 49 49 49 51 50 49 48 46 50 53 53 51 50 52 55 51 49 51 51 50 49 48 50 52 53 50 48 48 47 47 46 46 46 42 41 42 41 41 43 44 43 43 43 43 43 42 42 42 42 42 41 40 39 39 39 40 40 41 41 42 43 45 45 46 46 47 47 47 47 47 47 47 48 50
48 46 48 50 47 49 51 50 51 51 51 52 52 51 51 52 52 51 51 50 52 54 53 52 53 55 55 52 51 54 53 51 51 51 52 53 53 53 52 50 49 49 48 48 47 45 43 44 43 42 43 45 45 44 44 44 44 44 43 43 43 43 43 42 41 41 41 42 42 43 43 44 45 45 46 47 48 48 49 49 49 49 49 49 49 50
49 48 49 51 49 51 52 52 53 52 53 55 54 54 54 53 54 55 55 54 55 56 52 52 56 56 56 55 55 56 53 52 54 54 53 53 53 54 54 52 51 50 50 49 49 47 45 44 45 44 44 45 46 45 45 45 45 45 45 45 45 45 45 44 44 44 44 44 45 45 45 45 46 47 47 48 49 49 50 50 51 51 50 50 50 51
51 50 51 53 52 53 54 54 54 53 55 56 56 57 57 55 56 57 57 57 57 57 53 54 58 57 57 58 58 57 55 54 56 56 54 54 54 54 55 55 53 52 52 51 50 50 48 46 47 47 46 47 47 47 47 46 46 46 47 48 46 46 47 46 46 46 46 46 46 47 47 47 48 48 49 49 50 50 51 51 52 52 52 52 52 52
53 52 53 55 55 55 56 56 55 55 56 58 58 59 59 59 59 60 60 60 60 58 56 59 61 59 58 60 61 60 57 56 56 56 56 56 55 55 56 56 56 55 54 53 52 52 51 48 49 50 50 49 48 48 48 47 47 48 49 49 48 48 49 49 48 48 48 48 49 49 49 49 50 50 51 51 52 52 52 53 53 53 53 53 53 53
54 54 55 56 56 57 57 57 57 56 57 58 59 60 61 61 62 62 62 63 62 59 60 63 64 62 59 60 64 64 58 55 56 57 58 59 59 59 58 58 58 58 57 56 55 54 53 51 50 52 53 52 50 50 49 48 48 49 49 50 50 51 51 51 50 50 50 50 51 51 51 51 52 52 53 53 53 54 54 54 55 55 55 55 55 55
55 55 56 56 57 57 58 59 58 58 59 60 60 61 62 62 63 63 64 65 63 62 64 66 66 64 60 60 65 67 61 56 57 59 61 61 61 61 62 62 62 62 61 60 58 57 55 54 53 54 55 54 52 52 52 51 51 50 50 50 51 52 53 53 53 52 53 52 52 53 53 53 54 54 54 55 55 56 56 56 56 57 57 57 57 57
57 57 57 57 57 58 58 59 59 59 59 61 62 63 63 65 65 64 65 67 65 65 68 68 68 66 61 61 66 68 65 61 60 62 64 65 64 63 64 64 64 65 65 63 62 60 58 57 57 57 57 56 55 55 55 54 54 53 52 52 52 53 54 55 56 55 55 55 54 54 55 55 55 55 56 56 57 57 58 58 58 58 58 59 59 59
61 61 60 60 60 60 60 60 61 60 60 61 62 63 64 66 68 66 67 69 68 68 69 68 68 66 62 63 67 69 68 66 63 64 66 68 67 66 66 67 67 67 67 67 65 64 62 60 60 61 61 59 58 58 58 56 56 55 55 55 54 54 55 56 58 58 57 57 57 56 56 56 56 57 57 57 58 59 59 60 60 60 60 60 61 61
64 64 64 64 63 62 62 63 64 63 63 63 64 65 65 67 69 68 68 69 69 69 69 68 68 67 65 65 68 70 69 68 68 67 67 70 71 70 69 69 69 69 70 70 69 68 66 63 63 65 65 62 61 61 61 59 59 58 58 58 57 56 56 58 59 59 59 59 59 59 58 58 58 58 58 58 59 60 60 61 62 62 62 62 62 63
66 66 68 69 67 65 65 66 68 68 67 66 67 67 68 69 71 71 70 70 70 70 69 69 69 68 67 67 69 70 69 70 73 71 69 70 72 73 73 72 72 72 72 72 72 72 71 67 65 66 68 66 64 64 64 63 62 62 61 61 60 59 59 60 61 60 60 60 61 61 60 60 60 60 60 60 60 61 61 62 62 63 63 64 64 65
67 67 69 70 70 69 69 70 71 71 70 71 71 70 72 73 75 75 74 72 73 72 70 70 71 68 67 68 68 70 70 70 73 74 73 73 72 73 74 75 74 74 74 74 73 73 74 72 68 67 69 70 69 67 67 66 65 65 64 64 63 63 62 63 64 63 62 62 62 63 63 62 62 62 62 63 63 63 63 63 63 64 64 65 66 67
68 67 68 70 70 71 71 72 73 73 72 73 74 75 76 77 77 79 79 76 77 76 72 72 73 71 69 68 68 71 72 72 74 76 76 75 74 73 74 76 76 76 76 75 74 74 75 75 72 69 70 72 72 71 69 68 67 68 67 66 66 66 65 67 67 66 65 65 65 65 65 65 65 65 64 64 64 65 64 64 64 65 65 66 67 68
67 66 66 69 70 71 72 71 72 73 73 74 76 77 79 79 79 81 83 81 81 80 77 75 76 75 73 71 71 73 75 74 76 78 78 77 77 75 74 75 75 75 76 76 76 76 76 76 75 72 72 73 74 73 71 69 69 70 68 67 68 68 68 69 70 70 68 68 67 68 68 68 68 68 67 66 66 66 66 66 66 66 66 67 68 69
64 64 63 65 68 69 70 70 70 71 73 76 77 77 79 80 80 82 84 85 84 83 81 80 79 78 75 74 75 77 78 78 78 80 80 79 79 79 77 75 74 74 76 76 77 77 77 77 76 74 73 74 74 73 71 69 70 71 69 69 69 69 69 70 71 72 71 70 70 71 71 70 70 70 70 70 69 69 68 68 68 68 68 69 69 70
61 61 59 60 64 66 67 68 68 68 70 74 76 77 78 80 81 82 84 84 85 86 85 83 81 79 77 78 80 80 82 83 82 83 83 82 82 81 80 78 76 76 77 77 77 78 78 78 77 76 75 75 74 72 71 70 71 70 69 69 69 69 69 70 72 72 72 72 72 73 73 72 72 72 72 72 72 72 71 70 70 70 70 71 71 71
60 61 58 58 61 63 64 65 67 67 68 71 75 76 76 78 80 82 82 82 83 86 87 86 83 78 77 80 81 82 85 86 85 85 85 86 86 85 83 83 81 80 80 79 78 80 80 79 78 77 77 77 75 72 71 72 71 70 70 70 70 70 70 70 72 72 72 73 74 74 75 74 74 74 73 74 74 74 74 73 72 72 72 72 73 73
60 63 61 59 60 61 62 65 67 67 68 71 75 76 76 78 79 80 81 80 81 84 85 86 84 78 77 80 82 83 86 86 85 85 85 88 89 89 88 87 86 86 86 83 81 82 83 82 81 80 79 79 78 74 72 74 73 71 71 71 71 71 71 71 72 72 72 73 74 75 76 76 76 76 75 75 75 75 75 75 74 74 74 74 74 74
60 65 64 59 59 60 61 64 66 69 71 73 75 76 77 78 78 80 81 80 80 80 81 83 83 78 74 78 82 84 85 85 84 85 86 88 89 90 90 89 90 90 90 88 86 85 85 85 84 84 82 82 82 78 75 76 76 73 73 74 74 74 74 73 74 73 73 73 74 74 75 76 76 76 76 76 76 76 76 76 76 76 76 76 75 75
62 65 64 60 60 60 60 63 66 70 74 75 74 75 75 76 77 79 81 82 81 78 78 82 83 78 74 77 80 81 82 83 83 85 87 88 88 89 90 90 91 92 91 90 89 88 88 87 87 87 86 86 86 82 78 80 80 77 77 78 78 77 77 77 76 76 75 75 75 75 75 75 75 75 76 76 76 76 77 77 77 77 77 77 77 76
65 65 64 62 61 59 59 62 66 70 73 73 73 73 74 74 76 78 80 81 80 78 79 83 83 80 77 77 78 79 79 80 82 84 86 87 88 89 88 89 91 93 92 92 90 89 89 88 88 88 88 89 89 86 83 84 83 81 81 82 81 81 82 80 80 80 79 77 77 77 77 76 75 76 76 76 76 76 76 77 77 77 77 77 77 77
65 65 64 64 62 59 59 62 66 70 71 71 71 71 71 72 74 77 78 79 79 79 80 81 81 81 79 76 77 79 80 81 82 84 85 85 87 87 86 87 89 91 93 93 92 90 89 89 89 89 90 90 91 90 86 85 85 85 85 85 84 85 85 85 84 84 82 80 80 80 80 79 78 78 77 77 77 77 76 77 77 77 77 76 76 77
65 65 64 64 62 60 60 61 64 68 69 69 69 68 67 68 71 75 77 77 78 80 79 77 78 82 79 75 75 78 81 84 84 85 85 86 87 86 85 86 87 89 91 92 91 89 88 88 87 88 89 91 92 93 90 87 86 87 88 89 89 89 88 89 88 87 86 84 84 84 84 83 82 81 80 80 79 79 78 78 78 77 77 76 76 76
65 65 65 65 62 59 60 61 64 67 67 67 66 63 62 64 68 73 75 74 75 79 79 76 77 81 78 74 73 75 80 83 85 86 87 87 87 87 86 86 86 87 88 89 88 87 86 85 83 83 86 89 91 92 92 90 88 88 89 91 93 92 91 91 90 89 89 88 88 87 87 87 86 85 84 83 82 81 81 80 80 79 78 77 78 78
62 63 65 66 63 59 60 62 64 66 66 66 63 58 57 61 67 70 71 71 74 78 79 77 77 77 74 72 73 75 78 81 83 85 86 86 86 86 86 86 86 86 86 87 87 86 84 83 82 80 82 86 86 86 89 91 90 89 89 91 94 94 93 93 92 91 91 91 90 90 90 90 89 88 87 86 85 84 84 83 83 82 81 80 81 81
64 63 64 65 63 58 58 64 66 66 67 64 57 52 55 62 66 69 70 72 74 76 76 77 77 73 70 72 76 77 76 77 79 81 82 83 83 84 84 84 84 84 83 84 84 84 83 82 80 79 80 81 81 81 85 89 89 89 90 90 91 93 94 94 93 93 93 92 92 92 92 92 91 91 90 89 88 87 86 86 85 84 84 83 83 84
67 65 64 65 63 55 57 65 67 66 67 58 48 49 59 66 68 69 70 71 72 73 74 75 76 72 70 72 76 77 76 76 77 78 77 77 78 79 81 81 81 80 80 80 81 82 82 79 76 76 76 76 77 78 81 84 86 88 91 89 88 89 92 92 93 93 94 94 94 94 94 93 92 92 92 91 91 90 89 88 88 87 86 86 86 86
69 68 65 67 63 54 55 65 68 66 60 49 46 56 65 67 68 67 68 68 70 73 74 73 73 73 72 72 73 75 77 76 75 74 74 74 76 76 77 77 76 75 76 76 76 76 78 76 73 73 72 73 76 78 79 80 82 86 89 89 87 88 89 90 90 91 92 93 94 94 95 95 95 94 93 92 92 91 90 90 89 88 88 88 88 88
69 69 67 68 65 56 55 64 69 63 51 45 52 63 65 65 67 67 67 68 69 71 74 74 74 73 73 71 70 73 74 72 70 71 72 74 75 74 73 72 71 71 71 71 71 71 73 72 70 69 70 73 76 76 76 76 78 82 86 86 86 86 87 87 87 88 89 90 92 93 94 95 95 95 95 94 93 92 92 91 90 90 90 89 90 90
68 69 67 67 66 60 57 64 67 59 48 48 56 61 63 67 68 67 67 67 67 70 74 76 75 74 72 70 69 71 71 68 67 68 71 73 73 72 69 68 69 68 67 67 68 68 69 70 68 67 70 74 75 75 75 74 75 79 83 83 83 84 84 83 82 83 84 86 88 90 91 92 92 93 93 93 93 92 92 91 91 91 91 91 92 92
67 67 66 66 66 63 60 62 64 57 50 51 55 60 65 68 67 68 68 66 67 71 73 74 74 74 73 71 70 71 70 68 66 66 68 72 72 69 66 65 66 67 65 65 65 65 67 68 66 67 72 75 74 72 73 73 75 79 82 81 80 82 83 81 77 77 79 80 83 86 88 88 88 89 89 90 89 89 89 89 89 90 90 91 91 91
66 66 66 66 65 65 63 62 62 58 52 50 55 63 66 65 66 69 69 67 67 71 73 72 73 73 73 73 73 72 71 69 66 64 67 69 67 64 64 64 63 63 64 65 64 64 65 65 64 67 73 76 73 69 69 71 75 80 83 82 81 82 83 81 77 74 74 75 78 81 82 82 82 83 84 85 85 85 85 85 85 86 86 87 87 87
64 64 67 67 64 65 66 63 62 60 53 50 59 66 65 63 66 69 69 67 67 70 73 73 72 73 73 75 75 74 73 70 65 63 67 67 62 60 62 61 59 60 62 64 63 63 64 64 64 69 73 72 68 66 67 69 73 78 81 81 79 80 80 79 77 74 72 72 74 75 75 75 76 77 78 80 81 80 80 81 81 82 83 83 82 82
63 63 66 66 63 64 67 66 64 61 55 54 61 66 64 65 68 69 69 66 65 69 72 72 72 72 72 73 74 74 72 69 64 63 65 64 61 60 59 57 57 58 59 61 62 61 61 60 60 62 65 64 62 63 66 70 74 77 79 79 77 77 77 77 76 73 71 71 71 70 68 68 69 71 73 74 74 74 75 77 78 79 79 78 77 77
63 63 66 66 63 63 66 68 66 61 57 58 62 65 66 67 67 67 67 65 65 67 68 69 70 71 70 71 71 69 67 64 61 60 60 59 58 57 55 54 55 56 56 56 58 58 58 58 57 55 55 57 59 62 66 71 75 77 77 76 76 75 76 75 73 71 70 70 68 66 64 63 64 66 67 68 67 68 70 72 73 74 74 73 72 72
64 66 67 66 65 64 66 69 67 61 59 61 64 66 68 68 65 64 64 63 63 64 64 65 65 65 66 67 65 62 61 57 54 53 55 54 53 52 52 52 52 52 52 53 54 55 55 56 57 56 54 54 57 62 67 72 74 73 73 73 74 74 73 70 68 68 70 68 65 62 61 61 61 62 61 61 61 63 65 67 67 68 68 67 66 66
63 66 66 66 66 66 68 69 67 63 62 64 66 67 68 67 65 63 61 61 63 63 62 61 60 60 62 61 58 55 53 51 48 48 50 50 48 48 49 49 48 49 49 49 50 51 51 51 53 55 55 56 59 63 68 70 70 68 69 70 71 71 69 66 65 67 67 64 61 60 60 59 58 57 55 56 57 59 61 61 61 61 60 59 59 59
64 65 65 66 67 68 69 69 67 65 66 67 68 69 68 66 65 64 61 62 65 65 62 60 59 59 59 56 52 49 47 46 45 44 45 45 45 45 47 46 46 45 45 46 47 48 49 50 52 55 57 59 62 66 69 68 65 65 66 67 68 68 66 64 65 65 63 60 59 59 58 55 54 52 52 53 54 55 56 55 54 54 53 53 53 54
64 65 65 65 67 68 69 68 66 67 68 68 68 70 69 65 65 64 61 62 66 65 61 59 57 56 54 50 46 44 44 43 42 41 42 43 42 43 44 44 43 42 43 45 48 50 51 53 54 56 58 61 65 69 69 66 63 64 65 64 64 64 64 64 64 63 61 60 60 58 54 51 49 49 50 51 51 51 51 50 49 48 48 48 49 50
64 66 66 66 66 68 68 66 65 68 69 67 66 68 68 65 63 61 60 61 64 61 58 55 54 52 49 45 41 41 41 40 38 38 40 41 40 41 43 42 41 42 44 47 49 51 53 54 56 59 61 64 68 70 68 65 65 65 64 62 62 63 64 64 63 61 60 60 58 55 51 48 48 48 48 48 47 46 45 45 45 45 45 45 45 46
65 67 68 68 68 68 65 64 65 67 66 66 66 67 66 62 59 59 59 60 60 56 52 51 50 49 45 41 39 40 38 36 36 37 39 39 40 40 40 41 42 43 44 46 49 51 54 56 59 61 64 66 68 68 67 66 66 65 62 61 61 61 61 61 60 60 59 58 55 51 48 46 47 46 45 44 43 42 42 42 42 42 42 42 42 42
64 66 69 71 70 67 62 61 66 66 63 63 65 66 64 59 55 56 58 58 55 51 47 46 46 45 42 39 38 38 36 34 35 36 37 38 39 39 41 43 45 45 45 47 50 52 54 56 59 60 62 64 65 65 65 65 64 61 59 59 59 58 58 59 59 58 57 54 51 47 45 45 46 44 42 41 40 40 40 41 41 40 40 40 39 38
65 66 68 71 69 65 61 61 65 65 61 61 62 62 60 56 52 53 56 55 52 48 44 43 43 42 39 37 36 35 34 33 34 35 36 37 39 40 42 45 46 47 48 50 52 54 55 56 58 59 60 62 63 62 62 62 60 57 56 56 56 56 57 56 55 55 55 52 48 44 43 44 44 42 39 38 38 38 39 40 39 38 37 36 35 34
67 66 66 68 66 62 61 61 63 62 60 59 59 57 55 53 50 51 52 51 49 45 42 42 41 39 37 36 34 33 33 32 33 34 35 37 39 41 44 47 48 49 50 52 53 55 56 57 57 58 60 61 61 60 60 60 57 55 54 55 55 55 54 52 53 54 53 49 45 43 42 42 41 39 37 36 36 37 37 38 37 35 34 33 33 33
67 64 63 63 60 58 58 59 59 58 57 56 55 52 50 49 48 48 48 48 46 42 41 40 38 36 36 35 33 32 32 31 31 33 34 36 39 42 45 47 49 50 51 52 54 55 56 56 57 57 58 59 59 59 58 56 54 53 53 53 53 52 51 51 53 53 50 45 43 42 42 41 39 36 35 35 35 35 35 35 35 33 31 31 32 33
64 60 59 58 55 54 55 56 56 54 52 52 51 49 47 46 45 45 45 45 43 40 39 38 36 35 35 34 32 32 31 30 30 32 34 36 39 42 44 46 47 49 50 51 52 53 54 55 55 56 57 57 57 56 55 54 52 51 50 50 49 49 50 52 52 49 46 43 42 41 40 39 37 35 34 34 34 33 33 33 33 31 30 30 31 32
Wind_Direction
255 256 257 257 257 256 254 256 258 257 255 254 254 254 255 256 256 256 256 254 248 249 256 260 260 259 260 264 263 251 246 255 259 260 260 257 256 258 259 259 257 256 255 254 254 252 250 251 251 248 246 248 251 250 251 252 253 255 255 255 254 251 248 245 243 241 240 240 240 241 240 238 236 233 232 232 232 232 232 231 230 229 228 228 228 227
254 255 256 257 257 255 253 254 255 255 255 256 256 254 253 254 255 256 257 255 251 250 254 257 259 260 259 260 263 259 247 249 257 260 259 258 255 254 256 257 257 257 256 255 253 250 248 248 250 251 248 246 248 250 251 252 253 253 254 254 254 252 249 246 244 241 240 239 239 240 240 240 238 236 235 233 233 233 233 233 232 231 229 229 229 228
253 253 254 256 256 254 253 253 252 253 253 254 255 255 255 255 256 258 259 256 254 253 254 255 255 257 260 259 259 261 255 247 251 259 260 257 254 253 254 256 258 259 258 256 254 251 249 247 248 251 251 247 247 250 251 252 253 253 254 254 254 253 251 248 245 242 240 239 238 238 239 240 240 239 238 237 235 235 235 234 233 233 232 230 230 229
252 253 254 254 255 255 254 253 254 254 254 253 254 255 255 255 255 256 257 257 255 252 251 255 256 256 258 259 258 259 259 253 247 253 259 259 255 252 253 256 258 259 259 258 257 253 251 249 247 250 252 249 248 249 251 252 253 253 254 254 255 254 253 250 247 244 241 240 239 237 237 238 240 240 240 239 239 238 238 237 236 235 233 232 231 230
252 252 254 252 253 255 254 253 255 255 255 255 255 255 256 256 256 257 256 253 254 254 253 253 256 258 258 258 259 260 258 256 251 249 255 260 259 254 253 256 258 259 260 259 258 256 254 252 249 249 252 251 249 249 251 252 253 254 254 255 255 255 254 251 249 246 244 242 241 239 238 238 238 239 239 240 240 240 240 240 239 238 235 233 232 232
254 253 253 253 252 253 253 252 254 255 255 256 255 256 256 257 257 257 257 253 252 255 256 255 255 257 258 257 259 260 257 257 256 252 251 256 260 259 256 256 257 259 260 260 259 258 255 255 252 250 251 252 251 250 251 252 253 254 255 255 256 256 255 253 250 248 246 244 243 241 240 239 239 239 239 239 239 240 240 240 240 240 239 236 234 233
256 255 254 255 253 253 253 251 252 253 254 255 255 255 255 257 257 257 256 255 254 254 255 257 257 256 257 257 257 258 257 257 258 256 253 253 257 260 260 259 258 258 259 260 260 259 256 256 255 253 252 253 252 251 251 251 252 254 255 256 256 257 256 255 253 250 248 246 244 243 242 241 240 240 240 240 240 240 240 240 240 240 241 240 237 235
258 257 257 257 255 254 254 253 252 252 253 255 255 254 254 255 257 257 255 254 254 255 254 255 257 257 257 257 255 256 256 258 259 258 256 255 256 259 260 261 260 260 260 260 261 260 258 258 258 256 254 254 254 252 251 251 251 252 254 255 255 256 256 255 254 252 250 248 246 245 244 243 242 242 242 242 242 242 242 241 241 240 240 240 240 239
259 259 259 259 257 256 256 255 255 254 253 254 255 255 255 254 255 256 256 255 254 254 254 254 255 255 257 257 255 254 254 255 258 259 259 257 257 258 260 261 261 261 262 262 262 262 260 259 260 259 257 256 256 254 253 251 251 251 252 252 254 255 256 255 255 254 252 251 248 247 246 245 244 244 243 243 243 243 243 243 243 242 242 240 240 240
261 260 260 260 260 259 259 258 257 256 256 256 256 256 257 256 255 255 256 256 256 255 255 255 253 252 254 257 257 255 252 252 255 258 260 259 258 258 259 260 261 262 262 263 263 263 261 260 260 260 259 258 257 256 255 253 252 251 251 251 252 254 255 255 255 255 254 253 251 250 248 247 246 245 245 244 244 244 244 244 244 244 244 243 241 241
262 262 261 260 261 261 261 261 260 259 259 259 258 258 258 258 257 257 257 257 257 257 256 255 255 253 252 256 259 257 253 252 254 256 258 259 259 258 258 259 260 260 261 262 262 262 262 260 259 259 260 258 258 257 257 256 254 253 253 252 251 252 254 255 255 255 255 254 252 251 250 249 248 247 246 246 245 245 244 244 244 244 245 244 243 243
264 263 262 262 262 262 262 262 262 261 261 261 261 260 260 260 259 259 259 259 258 258 257 256 256 255 254 255 258 259 257 254 254 255 256 257 258 260 259 259 259 259 259 260 260 261 261 260 259 258 259 259 258 258 257 257 257 256 255 254 253 252 253 255 255 255 256 255 253 252 251 250 249 249 249 248 248 247 246 245 244 245 245 244 244 243
263 263 263 262 262 262 262 262 262 262 262 262 262 262 262 261 260 259 260 260 259 258 258 258 258 258 257 257 258 260 259 256 254 255 256 256 256 258 260 260 259 259 258 258 258 258 258 259 259 258 258 258 258 259 258 258 257 257 256 256 255 254 253 254 255 254 255 255 255 254 252 251 250 250 249 249 249 249 248 247 246 245 245 245 245 244
262 262 262 262 262 262 262 263 263 262 262 262 262 262 262 262 262 261 260 260 260 259 259 260 261 260 259 259 260 260 260 259 257 255 257 257 255 255 257 259 259 259 259 258 257 257 256 257 258 258 258 257 258 258 257 257 257 257 257 257 256 256 255 254 254 254 254 255 255 255 254 253 251 251 250 250 250 250 249 249 248 247 247 246 246 245
262 263 263 262 261 262 262 263 263 262 261 261 261 262 262 262 262 262 261 261 261 260 260 261 261 261 260 260 260 261 262 262 259 257 257 258 258 256 254 256 257 258 259 259 258 257 255 255 257 259 258 257 256 257 257 257 257 257 258 258 257 257 257 257 256 255 254 254 255 255 255 254 253 252 251 251 251 250 250 250 249 248 248 247 247 247
264 264 264 263 262 261 261 261 262 262 262 261 261 262 262 262 262 262 261 261 261 260 261 261 260 260 261 260 261 262 262 262 262 259 257 256 258 258 257 256 256 257 257 258 259 259 257 255 255 257 259 258 256 256 256 256 257 257 257 258 258 257 257 257 257 256 255 255 255 255 255 255 254 253 252 252 252 251 251 250 250 249 249 248 248 247
264 264 265 265 264 263 261 261 261 261 262 262 261 261 262 262 262 262 261 260 261 260 260 261 261 260 260 260 261 262 261 261 262 261 259 257 256 257 259 258 258 257 257 257 258 259 260 258 255 255 257 258 257 256 256 256 257 257 258 258 258 258 257 257 257 257 256 256 256 256 255 255 255 254 253 252 252 252 251 251 250 250 250 249 248 248
265 265 265 266 266 265 264 263 263 263 262 262 262 262 261 261 262 263 262 261 261 261 260 260 261 261 260 260 260 261 261 261 261 261 260 259 258 256 257 259 259 260 260 259 259 258 259 260 259 256 256 258 258 258 257 257 257 257 257 258 258 258 258 258 258 257 257 256 256 256 256 255 255 255 254 253 253 252 252 251 251 251 250 250 249 249
268 267 267 267 267 266 266 265 265 266 265 264 263 263 263 262 262 262 263 262 261 261 260 259 260 260 260 260 260 260 260 260 261 261 261 260 260 258 257 257 259 260 261 261 260 260 259 260 260 259 258 258 259 259 258 258 258 257 257 257 257 257 257 258 258 258 257 257 257 256 256 255 255 255 255 254 254 253 252 252 251 251 251 250 250 250
271 270 269 270 269 268 268 267 266 266 266 265 264 263 264 263 263 263 263 263 262 261 260 259 259 259 259 260 259 260 260 260 260 261 261 261 261 260 259 258 258 259 260 261 261 261 261 261 260 260 259 259 259 259 260 259 259 259 258 257 257 256 256 256 257 257 257 257 257 257 256 256 255 255 255 255 254 254 253 253 252 252 251 251 251 250
271 270 270 270 271 271 270 270 269 268 267 267 266 264 264 264 263 263 263 264 264 264 262 260 258 259 259 259 259 259 260 260 260 260 261 261 261 261 261 260 259 259 259 259 260 261 260 260 261 261 260 259 259 259 260 260 260 260 259 259 258 257 256 256 256 256 256 256 256 257 257 256 256 255 255 255 255 254 254 253 253 252 252 251 251 251
274 273 271 269 270 271 271 271 271 269 269 268 268 266 265 265 264 263 263 263 264 264 264 263 261 260 260 261 260 260 260 260 260 261 262 262 262 262 262 262 261 260 258 258 258 260 260 260 260 261 261 260 260 259 259 260 259 260 260 260 259 258 257 256 256 256 256 256 256 256 256 256 256 256 256 256 255 255 254 254 254 253 252 252 251 251
278 277 273 271 270 271 271 271 270 269 268 267 267 267 266 265 265 265 265 264 264 265 266 266 265 263 262 262 261 260 261 261 261 261 262 262 263 262 262 262 261 261 260 259 258 258 260 260 260 260 260 260 260 259 259 259 259 259 260 260 259 259 258 258 257 257 256 255 255 255 256 256 256 257 257 257 256 256 256 255 254 254 253 253 252 252
279 278 276 275 274 273 272 271 271 270 267 265 264 265 265 266 267 267 266 266 265 266 267 268 267 264 264 263 261 260 261 261 261 261 261 261 262 262 262 262 261 261 261 260 259 258 259 260 260 260 260 260 260 259 258 259 259 259 259 259 259 259 258 258 258 258 257 257 256 256 256 256 256 256 257 257 256 256 256 256 255 254 254 253 253 253
279 279 279 278 276 274 274 273 272 270 268 267 266 266 266 267 267 267 267 267 266 266 266 267 266 266 264 263 263 262 263 263 263 262 262 261 261 261 262 262 262 261 261 261 260 260 259 259 259 260 260 260 260 260 259 259 259 259 259 259 259 259 259 258 258 258 258 257 258 257 257 257 257 257 257 257 256 256 256 256 255 255 254 254 254 253
281 281 281 280 279 277 276 275 273 271 270 269 269 268 267 267 267 267 267 267 267 266 265 264 265 264 263 263 264 264 264 264 263 263 263 262 262 261 262 262 262 262 261 261 260 260 261 260 260 260 260 260 260 259 258 259 259 259 258 258 259 259 259 259 258 258 258 258 258 258 258 258 258 258 257 257 257 257 257 256 256 256 255 255 254 254
281 281 282 282 281 280 278 276 274 273 271 270 269 268 268 268 268 268 268 267 267 265 264 264 265 264 262 262 263 263 262 261 260 260 261 261 261 261 261 261 262 262 262 262 261 260 260 261 262 262 262 261 261 260 258 258 259 259 258 258 258 257 258 258 258 258 258 258 258 259 259 259 258 258 258 258 258 257 257 257 257 256 256 256 255 255
281 281 282 281 281 281 279 277 275 274 272 271 270 269 269 269 269 269 268 267 267 266 265 264 265 264 262 261 261 262 262 261 260 260 260 259 260 260 259 259 260 261 262 263 262 262 261 261 261 263 263 263 262 262 259 257 257 258 259 258 257 256 256 257 257 258 258 258 258 258 259 259 259 258 258 257 257 257 257 257 257 257 256 256 256 255
281 283 282 281 281 282 280 278 276 274 273 271 270 270 270 271 269 268 267 267 268 267 266 264 263 264 263 262 261 261 262 262 261 261 260 259 259 259 259 259 259 260 261 262 263 262 262 262 261 262 263 264 264 264 263 260 258 257 257 258 258 257 257 256 256 257 257 257 258 258 258 259 259 259 258 258 257 257 257 257 257 257 256 256 256 255
280 282 282 282 282 282 282 280 276 274 272 271 271 272 273 272 270 269 269 268 267 266 266 265 264 264 266 266 264 261 260 260 260 261 261 261 261 260 260 259 259 259 260 261 262 262 262 262 261 260 261 262 263 265 266 264 261 259 257 257 257 258 257 257 257 257 257 257 257 257 258 258 259 259 259 259 258 258 257 257 257 257 257 256 256 256
281 281 282 282 282 283 282 279 275 273 272 271 274 278 277 272 269 268 267 266 265 266 267 268 267 266 267 268 266 264 262 262 261 261 261 261 261 261 261 261 260 260 261 261 262 262 261 260 260 259 259 261 262 264 265 266 264 262 259 257 257 258 258 257 257 257 257 257 257 257 258 258 258 259 259 259 259 259 259 259 258 258 258 257 257 256
283 283 283 282 281 281 280 276 274 273 272 276 282 280 272 267 265 265 266 267 268 269 269 269 269 269 268 266 267 267 266 265 264 263 263 263 263 263 262 262 261 261 260 260 260 261 260 259 259 259 259 260 261 261 262 263 264 264 262 260 259 259 258 258 258 258 257 258 258 258 258 258 258 258 259 259 259 260 260 260 260 260 259 259 258 258
285 285 284 282 281 280 276 274 273 272 275 283 283 272 266 266 267 268 268 269 270 270 270 270 270 270 268 267 267 267 267 266 266 267 267 267 266 264 263 262 261 260 260 259 259 259 260 259 258 258 259 259 259 258 259 261 264 265 265 263 260 259 259 259 259 259 258 258 258 258 258 259 259 259 259 259 260 260 260 261 261 261 261 260 260 260
286 286 285 283 282 279 275 273 273 274 279 280 273 269 270 271 270 270 269 269 270 271 272 272 271 270 269 268 267 267 267 268 268 269 268 267 266 265 264 263 262 261 260 260 259 259 259 259 258 258 258 257 257 257 258 259 261 263 264 263 262 261 260 259 259 259 260 260 260 259 259 259 259 260 260 260 261 261 262 262 262 262 262 262 262 261
285 285 284 283 282 279 275 274 274 277 278 273 271 272 273 271 270 269 269 269 270 271 271 272 273 273 273 273 272 271 270 269 268 267 267 267 266 264 263 262 262 261 260 259 258 258 258 258 257 256 255 254 255 255 255 256 258 260 261 263 263 263 262 261 261 260 261 261 261 261 261 260 261 261 261 261 262 262 263 263 263 263 263 263 263 263
284 283 283 282 280 279 277 275 276 277 276 274 273 272 270 269 271 271 271 271 271 271 271 272 274 275 275 275 274 273 272 270 269 268 268 267 265 264 262 261 260 259 258 256 254 253 253 254 254 254 254 253 253 253 254 254 255 258 260 261 262 264 266 266 264 263 262 262 262 261 261 261 261 262 262 263 263 263 264 264 264 264 264 264 264 264
283 283 282 280 280 280 278 276 276 276 275 274 273 269 268 270 271 271 271 272 272 272 273 274 274 275 276 276 275 274 273 272 271 271 270 267 264 264 263 260 257 256 255 254 251 249 249 250 250 250 251 252 253 254 256 255 255 256 259 261 262 265 267 268 268 266 265 265 264 263 262 262 262 262 263 263 264 264 264 264 264 264 264 265 265 265
281 281 281 280 280 281 280 279 278 277 276 275 272 271 271 272 271 271 271 272 272 273 274 275 275 276 276 276 276 276 275 274 274 273 271 268 266 264 262 259 257 254 252 251 249 247 246 246 246 248 251 254 255 256 257 257 256 256 258 261 262 264 266 268 268 268 267 267 266 265 264 264 263 263 262 263 263 264 264 264 264 264 265 265 265 266
279 279 279 279 279 280 280 279 278 277 277 275 273 273 274 273 272 272 273 273 273 273 274 275 276 275 275 274 274 274 273 274 273 271 269 268 266 263 260 258 256 252 249 248 247 246 245 245 246 249 253 255 256 255 255 255 256 257 258 260 262 263 265 266 268 269 269 268 267 267 266 266 265 264 263 263 263 263 263 263 264 264 264 265 265 266
281 280 279 279 279 279 280 279 278 278 278 277 275 275 275 273 272 273 274 275 274 273 273 274 273 273 273 272 272 272 272 271 271 269 267 265 263 261 259 256 253 250 247 246 245 244 243 242 241 243 246 249 251 251 252 253 254 256 258 260 261 262 264 266 268 269 269 268 268 268 268 267 266 265 264 264 264 263 263 263 263 263 264 265 266 266
281 280 280 281 282 281 280 280 280 281 281 280 278 277 276 276 275 276 276 277 276 275 274 272 272 272 272 271 271 272 272 271 270 269 267 264 262 260 258 254 251 249 246 244 243 242 241 240 238 238 239 241 243 245 248 250 252 254 256 258 260 262 264 267 268 268 268 268 269 270 270 269 267 266 265 265 264 263 263 263 263 264 265 266 267 267
279 279 280 282 283 282 281 281 283 284 283 282 281 280 279 280 281 280 280 280 279 278 276 275 274 273 272 272 272 272 271 270 268 266 265 264 261 258 255 252 250 247 244 242 240 239 238 237 237 236 236 236 239 242 246 249 252 253 255 256 259 262 265 267 267 266 267 269 270 270 270 269 268 268 268 266 264 263 263 264 265 266 267 267 267 266
279 279 280 281 281 281 281 282 284 285 284 283 283 282 282 283 283 283 284 284 282 280 278 277 276 275 273 273 272 272 271 268 266 263 262 261 258 255 253 250 247 244 241 238 235 232 231 231 232 233 233 234 237 241 245 249 252 254 255 256 259 262 264 265 266 266 268 270 270 269 269 269 270 270 268 266 264 264 265 266 267 268 268 268 267 266
279 280 280 280 280 281 281 282 284 284 283 282 282 283 283 283 282 283 283 283 281 279 278 278 277 275 274 274 273 272 270 268 266 263 259 257 254 251 248 245 243 239 236 233 230 228 227 227 227 229 230 233 237 241 245 248 250 253 255 257 259 261 263 264 266 268 269 270 269 269 270 271 272 270 267 265 265 266 267 269 270 269 269 268 267 267
281 281 281 280 280 279 280 282 283 282 282 283 282 282 281 282 282 283 282 279 277 277 277 277 276 275 274 274 273 271 268 266 264 261 256 253 250 246 243 240 237 234 231 230 229 227 225 225 224 226 228 231 237 242 245 247 249 251 255 257 259 260 262 264 266 267 268 269 270 271 273 272 270 267 266 266 267 269 270 271 271 271 270 270 269 269
282 282 282 281 280 279 280 282 282 281 281 282 282 281 280 281 282 282 279 277 276 276 277 276 275 275 275 275 273 269 266 263 259 256 252 249 245 241 237 234 232 230 229 229 228 228 227 225 225 227 230 233 237 241 244 246 248 251 255 257 258 260 261 263 265 266 267 268 270 272 272 270 268 267 267 269 270 271 273 273 273 273 273 272 270 269
282 282 282 281 280 280 281 283 282 281 281 280 280 280 280 281 281 279 277 276 276 276 275 274 273 273 273 272 269 266 264 260 255 251 248 245 242 236 232 230 229 227 224 224 226 227 228 228 229 231 233 235 239 241 243 246 248 252 254 256 258 259 260 261 263 265 267 269 270 270 269 268 268 268 269 270 272 273 274 275 274 274 273 272 271 269
282 280 280 280 281 283 284 284 282 281 281 279 278 278 279 279 278 275 274 274 275 275 274 272 271 270 270 267 264 262 260 256 252 248 245 241 238 233 229 228 227 225 222 222 224 227 228 229 230 232 234 237 240 242 244 247 250 252 253 255 257 258 259 260 262 264 266 269 270 270 268 268 268 270 271 272 273 274 275 275 275 274 273 272 271 270
281 279 279 280 282 284 285 283 281 280 279 278 277 277 277 278 276 273 272 273 274 274 273 270 269 269 268 265 262 259 257 253 249 245 241 237 234 231 228 227 226 224 223 223 224 227 229 230 231 232 234 237 240 242 244 248 250 251 252 254 256 257 259 261 262 263 265 268 270 270 269 269 269 271 273 274 274 275 275 275 275 274 273 273 272 270
280 280 280 281 283 283 282 279 277 276 276 276 276 276 276 275 273 271 271 271 271 271 269 269 268 267 265 263 260 257 253 249 245 241 238 234 232 229 229 228 227 226 226 225 226 228 230 231 232 234 236 238 240 242 245 248 250 251 252 254 256 258 259 260 260 262 265 268 269 269 269 270 271 273 273 274 274 275 275 275 275 274 273 272 270 267
280 282 283 284 283 281 278 276 275 275 276 276 275 274 273 271 270 268 268 268 268 268 267 267 266 264 261 259 257 254 250 245 241 238 235 232 230 229 229 230 229 229 229 230 230 231 231 232 233 234 236 238 240 243 245 248 250 251 253 255 256 257 258 258 260 263 266 267 267 268 269 270 272 273 273 273 274 275 275 275 274 273 272 269 265 262
Height
10603 10603 10604 10604 10606 10607 10607 10607 10608 10609 10609 10608 10609 10612 10613 10613 10612 10611 10616 10623 10626 10622 10616 10617 10621 10621 10621 10619 10622 10631 10634 10628 10624 10622 10625 10630 10630 10631 10632 10632 10634 10636 10638 10641 10643 10647 10648 10649 10650 10650 10650 10650 10650 10652 10652 10652 10654 10656 10657 10657 10658 10660 10662 10664 10666 10668 10670 10670 10671 10672 10674 10676 10677 10679 10681 10682 10684 10686 10687 10689 10692 10694 10696 10697 10700 10703
10599 10600 10601 10601 10603 10603 10604 10605 10605 10605 10606 10605 10606 10608 10609 10610 10608 10607 10613 10619 10620 10619 10614 10614 10616 10617 10617 10617 10617 10622 10628 10628 10622 10618 10619 10623 10626 10629 10628 10628 10629 10632 10634 10636 10639 10642 10644 10646 10646 10644 10646 10647 10647 10648 10648 10649 10651 10652 10653 10653 10654 10655 10658 10660 10662 10665 10666 10667 10668 10669 10670 10672 10673 10675 10677 10678 10680 10682 10684 10686 10688 10689 10691 10693 10696 10699
10596 10596 10597 10599 10599 10599 10602 10602 10601 10601 10602 10602 10602 10603 10605 10606 10604 10603 10608 10614 10616 10615 10609 10608 10612 10613 10612 10612 10614 10616 10620 10625 10622 10615 10613 10618 10622 10624 10624 10624 10626 10627 10629 10632 10634 10637 10640 10642 10641 10640 10640 10642 10643 10644 10644 10645 10647 10648 10649 10649 10650 10651 10653 10656 10658 10661 10663 10664 10665 10666 10667 10668 10669 10671 10673 10674 10676 10678 10680 10681 10683 10685 10687 10690 10693 10695
10592 10592 10594 10596 10594 10595 10599 10598 10597 10597 10597 10598 10598 10599 10601 10600 10599 10599 10604 10610 10611 10607 10603 10603 10608 10610 10607 10607 10610 10613 10614 10618 10619 10614 10609 10611 10616 10620 10620 10620 10622 10623 10624 10627 10628 10632 10635 10636 10637 10637 10635 10637 10639 10639 10640 10641 10643 10644 10645 10645 10646 10647 10649 10652 10654 10656 10658 10660 10661 10663 10664 10665 10665 10667 10668 10670 10672 10674 10675 10676 10678 10680 10683 10686 10688 10690
10587 10589 10590 10590 10590 10591 10593 10593 10593 10592 10592 10593 10594 10595 10595 10594 10595 10595 10600 10605 10602 10598 10599 10601 10605 10605 10601 10603 10607 10609 10609 10610 10612 10613 10609 10606 10609 10615 10617 10616 10618 10619 10620 10622 10623 10626 10629 10629 10633 10633 10630 10632 10634 10635 10636 10637 10638 10640 10641 10642 10642 10643 10645 10647 10649 10651 10653 10655 10657 10658 10660 10661 10662 10663 10664 10665 10667 10669 10670 10672 10673 10675 10678 10681 10683 10684
10581 10585 10584 10583 10586 10586 10586 10587 10587 10587 10587 10588 10588 10590 10590 10589 10590 10591 10593 10597 10596 10593 10595 10598 10600 10598 10596 10601 10604 10601 10603 10604 10605 10607 10607 10604 10604 10607 10611 10612 10613 10614 10616 10617 10618 10621 10623 10623 10627 10628 10626 10627 10629 10631 10632 10633 10634 10636 10636 10637 10638 10639 10640 10642 10645 10646 10648 10650 10651 10653 10655 10656 10657 10658 10660 10661 10662 10664 10665 10667 10668 10670 10672 10675 10677 10679
10575 10580 10578 10576 10581 10579 10579 10581 10580 10581 10582 10581 10583 10584 10584 10584 10584 10586 10587 10589 10589 10588 10591 10593 10593 10592 10592 10597 10598 10594 10597 10600 10599 10600 10602 10602 10601 10601 10603 10606 10608 10609 10610 10611 10612 10615 10617 10618 10620 10622 10623 10622 10623 10626 10627 10628 10630 10631 10632 10633 10634 10634 10635 10637 10639 10641 10643 10644 10646 10648 10649 10651 10652 10653 10655 10656 10658 10659 10660 10662 10663 10665 10667 10670 10672 10673
10570 10573 10572 10570 10574 10573 10572 10574 10574 10577 10576 10575 10577 10576 10578 10579 10578 10578 10579 10581 10582 10581 10587 10589 10585 10586 10588 10589 10589 10589 10593 10595 10593 10593 10595 10598 10599 10598 10598 10600 10602 10604 10605 10606 10607 10609 10612 10614 10613 10616 10618 10617 10618 10621 10622 10624 10625 10626 10627 10628 10629 10629 10630 10631 10633 10635 10637 10638 10640 10642 10643 10645 10647 10649 10650 10652 10653 10654 10655 10657 10658 10660 10662 10664 10666 10668
10564 10567 10566 10564 10566 10566 10566 10567 10568 10571 10570 10569 10571 10570 10571 10574 10572 10571 10571 10573 10574 10576 10582 10582 10577 10580 10581 10580 10581 10583 10588 10589 10587 10588 10590 10593 10594 10594 10594 10595 10596 10598 10599 10600 10601 10603 10607 10610 10609 10609 10612 10612 10614 10615 10616 10618 10620 10621 10622 10622 10624 10624 10624 10626 10627 10629 10631 10632 10634 10636 10638 10640 10642 10643 10645 10646 10648 10649 10650 10652 10653 10655 10656 10659 10661 10663
10558 10560 10560 10558 10559 10559 10560 10561 10563 10565 10563 10563 10565 10564 10564 10566 10565 10565 10565 10566 10567 10572 10576 10571 10568 10574 10575 10574 10573 10576 10581 10583 10583 10584 10585 10585 10587 10588 10588 10589 10590 10592 10593 10594 10596 10597 10600 10604 10604 10603 10604 10606 10608 10609 10610 10613 10614 10615 10616 10617 10619 10619 10619 10620 10621 10623 10625 10627 10628 10630 10632 10634 10635 10637 10638 10640 10642 10643 10645 10646 10648 10649 10651 10653 10655 10657
10551 10553 10553 10552 10552 10553 10553 10554 10556 10558 10557 10557 10558 10557 10557 10558 10558 10558 10559 10559 10562 10568 10566 10560 10560 10566 10571 10572 10566 10566 10574 10579 10580 10580 10578 10578 10579 10580 10581 10582 10583 10585 10587 10587 10589 10591 10593 10597 10598 10597 10597 10599 10601 10603 10604 10606 10607 10608 10610 10611 10613 10613 10613 10614 10616 10617 10618 10620 10622 10623 10625 10627 10628 10630 10632 10633 10635 10637 10639 10640 10642 10643 10645 10647 10649 10651
10545 10546 10546 10546 10546 10547 10547 10547 10549 10551 10551 10551 10551 10550 10550 10550 10550 10552 10551 10551 10557 10559 10554 10551 10554 10558 10567 10570 10561 10558 10567 10575 10576 10573 10571 10572 10573 10572 10573 10574 10575 10577 10579 10580 10582 10584 10586 10588 10590 10590 10590 10592 10595 10596 10597 10599 10600 10602 10604 10605 10607 10608 10608 10607 10609 10611 10611 10613 10615 10616 10618 10620 10622 10623 10625 10627 10628 10630 10631 10633 10635 10637 10638 10640 10642 10644
10537 10538 10538 10539 10540 10540 10540 10540 10541 10544 10544 10544 10543 10543 10543 10542 10541 10545 10545 10543 10548 10549 10545 10545 10548 10553 10563 10563 10556 10554 10558 10565 10568 10566 10563 10564 10566 10567 10565 10565 10567 10568 10569 10572 10574 10576 10579 10580 10581 10582 10583 10586 10589 10589 10590 10592 10593 10595 10597 10598 10600 10602 10602 10601 10602 10603 10604 10605 10607 10609 10611 10613 10615 10616 10618 10619 10621 10622 10624 10626 10628 10630 10632 10633 10635 10637
10529 10530 10531 10532 10533 10534 10534 10534 10534 10536 10537 10536 10536 10535 10535 10533 10531 10536 10537 10535 10539 10541 10539 10541 10543 10548 10557 10555 10549 10548 10550 10555 10559 10558 10555 10553 10557 10561 10559 10557 10558 10559 10559 10563 10566 10568 10572 10574 10573 10573 10575 10579 10581 10581 10583 10585 10586 10588 10590 10591 10593 10595 10595 10595 10594 10596 10598 10598 10600 10601 10603 10605 10607 10609 10611 10612 10614 10615 10617 10619 10621 10623 10625 10626 10628 10629
10522 10523 10523 10524 10526 10528 10529 10527 10526 10527 10528 10529 10528 10526 10527 10525 10522 10525 10528 10527 10530 10532 10532 10536 10537 10540 10547 10546 10541 10541 10544 10546 10546 10549 10549 10545 10546 10549 10551 10550 10550 10551 10551 10553 10556 10559 10563 10568 10568 10565 10566 10571 10574 10573 10575 10578 10578 10580 10582 10583 10586 10588 10588 10587 10587 10589 10590 10591 10592 10593 10596 10598 10599 10601 10603 10605 10606 10607 10610 10611 10613 10615 10617 10619 10620 10621
10516 10516 10513 10514 10518 10522 10522 10520 10517 10518 10520 10520 10520 10519 10519 10517 10513 10515 10519 10519 10520 10522 10526 10528 10528 10533 10537 10536 10534 10534 10537 10536 10533 10536 10540 10538 10537 10537 10540 10542 10542 10543 10544 10545 10547 10548 10551 10559 10564 10560 10557 10561 10566 10566 10568 10570 10571 10573 10575 10576 10578 10580 10581 10579 10579 10581 10583 10584 10584 10586 10588 10589 10591 10593 10595 10597 10598 10600 10602 10604 10605 10607 10609 10611 10613 10614
10507 10508 10505 10505 10509 10512 10513 10511 10509 10511 10512 10511 10511 10512 10510 10506 10504 10504 10508 10511 10510 10512 10520 10519 10518 10525 10528 10528 10528 10526 10527 10527 10523 10523 10526 10528 10530 10530 10530 10531 10533 10534 10536 10538 10540 10540 10540 10545 10554 10556 10551 10550 10555 10558 10560 10562 10564 10565 10567 10569 10570 10572 10573 10571 10571 10573 10575 10576 10577 10578 10580 10581 10582 10585 10587 10589 10590 10592 10594 10596 10597 10599 10601 10603 10604 10606
10497 10500 10499 10497 10499 10500 10500 10502 10502 10502 10504 10503 10502 10501 10498 10498 10498 10494 10496 10502 10500 10502 10511 10512 10509 10515 10518 10520 10522 10517 10515 10518 10514 10511 10514 10517 10519 10523 10523 10522 10523 10525 10526 10529 10532 10533 10532 10532 10539 10547 10546 10543 10545 10548 10551 10555 10556 10557 10559 10561 10563 10564 10565 10563 10563 10565 10567 10568 10569 10570 10571 10572 10573 10575 10578 10580 10581 10583 10585 10587 10589 10591 10593 10594 10595 10596
10487 10491 10492 10489 10489 10489 10489 10493 10495 10493 10493 10493 10491 10490 10487 10488 10490 10486 10484 10488 10489 10491 10499 10503 10501 10504 10508 10512 10513 10508 10505 10507 10505 10501 10504 10507 10508 10511 10514 10514 10516 10518 10518 10519 10520 10522 10524 10524 10527 10534 10537 10536 10536 10538 10542 10547 10548 10547 10551 10554 10554 10555 10556 10555 10554 10556 10558 10560 10560 10561 10562 10563 10564 10566 10568 10571 10572 10574 10576 10579 10581 10582 10584 10585 10586 10588
10477 10480 10484 10482 10479 10479 10480 10482 10486 10484 10481 10479 10480 10481 10478 10476 10478 10477 10474 10474 10477 10480 10486 10491 10492 10495 10501 10503 10500 10498 10496 10496 10496 10493 10493 10497 10498 10499 10503 10506 10509 10510 10509 10510 10510 10511 10513 10514 10516 10522 10526 10527 10528 10530 10535 10539 10538 10538 10542 10544 10544 10545 10547 10546 10545 10546 10549 10551 10551 10551 10552 10553 10555 10557 10559 10561 10563 10565 10567 10570 10572 10573 10575 10576 10577 10579
10469 10472 10477 10476 10470 10470 10471 10472 10473 10474 10472 10468 10466 10468 10468 10466 10466 10465 10464 10465 10466 10466 10470 10476 10482 10489 10492 10490 10489 10489 10486 10484 10485 10485 10485 10487 10488 10490 10493 10496 10499 10500 10500 10501 10501 10500 10502 10504 10506 10510 10514 10516 10518 10523 10527 10528 10528 10530 10532 10533 10534 10536 10537 10537 10535 10536 10539 10541 10541 10541 10542 10544 10546 10547 10549 10551 10553 10556 10558 10560 10562 10563 10565 10566 10568 10569
10462 10462 10467 10469 10464 10463 10464 10462 10462 10463 10462 10457 10453 10455 10457 10455 10453 10452 10454 10458 10456 10452 10455 10460 10469 10482 10484 10478 10479 10479 10474 10473 10475 10477 10478 10476 10477 10480 10482 10484 10486 10488 10488 10491 10493 10491 10491 10495 10498 10499 10503 10504 10508 10515 10518 10516 10518 10521 10522 10523 10524 10525 10526 10526 10525 10526 10529 10530 10530 10531 10532 10534 10535 10537 10539 10541 10543 10546 10548 10550 10552 10553 10555 10557 10558 10559
10454 10450 10454 10459 10458 10457 10458 10454 10451 10451 10451 10446 10441 10443 10444 10441 10442 10441 10443 10448 10446 10443 10446 10447 10454 10470 10473 10466 10467 10467 10462 10463 10467 10469 10469 10466 10465 10467 10470 10473 10474 10474 10475 10479 10483 10483 10481 10485 10488 10489 10492 10492 10495 10505 10508 10505 10508 10512 10513 10513 10514 10514 10515 10516 10515 10516 10518 10519 10519 10520 10521 10523 10525 10527 10529 10531 10533 10535 10537 10539 10541 10543 10545 10546 10548 10550
10445 10438 10441 10449 10450 10450 10449 10446 10442 10439 10435 10433 10432 10432 10432 10432 10434 10432 10432 10435 10435 10437 10440 10436 10437 10453 10460 10454 10453 10454 10451 10454 10458 10458 10456 10455 10454 10454 10456 10460 10462 10462 10463 10466 10471 10473 10473 10474 10476 10477 10482 10482 10482 10492 10499 10495 10497 10503 10503 10501 10502 10503 10505 10506 10505 10506 10508 10508 10509 10510 10511 10513 10515 10517 10519 10520 10522 10524 10526 10528 10530 10532 10534 10535 10537 10540
10434 10430 10432 10438 10439 10440 10441 10437 10433 10425 10419 10420 10424 10424 10425 10427 10425 10422 10421 10422 10424 10431 10432 10424 10424 10438 10446 10441 10440 10442 10442 10444 10446 10443 10442 10443 10443 10443 10445 10447 10448 10449 10451 10454 10457 10461 10462 10464 10465 10465 10470 10471 10469 10479 10488 10485 10485 10492 10492 10489 10492 10493 10493 10495 10496 10496 10497 10499 10500 10500 10501 10503 10506 10507 10508 10510 10511 10514 10515 10517 10519 10521 10522 10525 10527 10529
10423 10423 10424 10426 10427 10431 10432 10427 10420 10413 10409 10411 10414 10415 10416 10417 10415 10412 10411 10409 10413 10420 10418 10411 10414 10424 10430 10431 10432 10433 10432 10433 10432 10429 10429 10430 10430 10432 10435 10435 10434 10434 10438 10441 10445 10448 10450 10452 10454 10455 10457 10458 10457 10465 10475 10474 10473 10479 10480 10478 10481 10482 10481 10484 10485 10485 10487 10489 10490 10490 10490 10493 10496 10497 10498 10499 10501 10502 10504 10506 10508 10509 10511 10514 10516 10518
10414 10414 10415 10415 10417 10421 10420 10416 10409 10402 10400 10402 10403 10405 10407 10407 10404 10401 10399 10399 10402 10403 10402 10403 10405 10407 10416 10424 10423 10421 10420 10419 10418 10416 10416 10417 10417 10420 10425 10424 10422 10421 10423 10426 10432 10438 10440 10442 10443 10443 10445 10446 10444 10449 10459 10463 10463 10465 10466 10467 10469 10470 10469 10471 10473 10473 10476 10479 10480 10479 10479 10482 10484 10485 10487 10489 10490 10492 10493 10495 10496 10498 10500 10503 10506 10507
10405 10405 10406 10404 10406 10410 10408 10405 10399 10391 10390 10392 10393 10396 10399 10398 10395 10390 10387 10388 10388 10385 10388 10397 10395 10390 10400 10412 10413 10410 10406 10403 10404 10404 10404 10405 10406 10408 10412 10413 10411 10410 10410 10412 10419 10425 10428 10432 10434 10434 10433 10433 10432 10432 10439 10450 10454 10453 10452 10452 10453 10456 10457 10458 10460 10462 10465 10467 10469 10468 10468 10470 10471 10473 10475 10477 10479 10481 10482 10483 10485 10487 10490 10493 10495 10496
10397 10397 10396 10393 10396 10400 10396 10393 10387 10380 10379 10381 10382 10388 10391 10389 10384 10377 10375 10378 10376 10371 10373 10383 10382 10377 10386 10399 10402 10399 10394 10390 10390 10390 10389 10392 10395 10397 10399 10400 10401 10401 10401 10402 10406 10411 10414 10418 10423 10425 10423 10420 10421 10420 10422 10430 10439 10442 10441 10438 10436 10441 10445 10445 10448 10451 10453 10455 10456 10456 10457 10458 10459 10460 10463 10465 10467 10469 10470 10472 10473 10476 10479 10482 10483 10485
10391 10390 10386 10382 10387 10390 10386 10380 10374 10370 10369 10369 10374 10382 10384 10378 10370 10365 10365 10367 10363 10358 10360 10366 10369 10371 10378 10384 10385 10383 10380 10378 10378 10377 10376 10379 10383 10385 10386 10388 10389 10390 10392 10392 10394 10398 10402 10405 10409 10414 10413 10410 10412 10413 10408 10410 10419 10426 10429 10426 10424 10426 10430 10432 10436 10438 10440 10442 10444 10445 10445 10446 10447 10449 10450 10453 10455 10457 10459 10461 10462 10464 10468 10470 10471 10473
10380 10382 10379 10374 10377 10383 10378 10365 10360 10359 10357 10360 10372 10379 10373 10363 10356 10353 10353 10352 10349 10349 10352 10353 10354 10364 10372 10369 10363 10364 10367 10368 10367 10366 10366 10368 10370 10372 10373 10375 10377 10379 10382 10382 10382 10384 10388 10392 10396 10400 10401 10401 10404 10404 10398 10395 10400 10407 10411 10413 10413 10414 10415 10418 10423 10426 10427 10430 10432 10433 10433 10434 10436 10437 10438 10440 10443 10445 10447 10448 10450 10453 10456 10458 10459 10460
10366 10369 10370 10364 10366 10377 10369 10351 10348 10349 10347 10358 10373 10370 10355 10345 10342 10343 10343 10343 10343 10342 10343 10342 10343 10351 10359 10355 10349 10350 10353 10355 10354 10353 10355 10358 10360 10360 10360 10362 10364 10366 10368 10368 10369 10370 10372 10379 10384 10387 10390 10393 10394 10392 10387 10385 10387 10390 10393 10398 10403 10403 10402 10405 10409 10411 10414 10417 10419 10420 10420 10421 10423 10425 10426 10429 10431 10433 10435 10436 10438 10441 10443 10445 10446 10448
10354 10355 10356 10350 10353 10367 10360 10341 10336 10340 10346 10362 10364 10348 10336 10334 10334 10336 10337 10338 10336 10332 10331 10334 10335 10337 10340 10342 10341 10338 10338 10341 10343 10344 10346 10347 10346 10346 10346 10347 10350 10353 10354 10356 10359 10361 10362 10367 10373 10377 10379 10380 10378 10378 10379 10380 10380 10378 10379 10384 10389 10390 10391 10393 10395 10397 10401 10404 10405 10407 10407 10408 10410 10412 10414 10417 10419 10420 10423 10424 10427 10429 10431 10433 10434 10435
10343 10341 10342 10338 10339 10352 10350 10332 10325 10334 10349 10357 10345 10329 10328 10328 10326 10327 10329 10329 10328 10325 10321 10321 10322 10323 10325 10329 10330 10328 10327 10331 10335 10336 10335 10333 10331 10332 10334 10335 10338 10341 10345 10347 10350 10352 10353 10356 10363 10367 10367 10365 10364 10367 10370 10372 10372 10368 10366 10370 10375 10377 10379 10382 10384 10386 10389 10390 10391 10393 10394 10395 10398 10400 10402 10404 10407 10409 10411 10413 10415 10416 10418 10420 10420 10421
10334 10330 10330 10327 10325 10334 10337 10325 10317 10329 10343 10343 10332 10325 10321 10316 10314 10317 10319 10321 10321 10318 10312 10309 10310 10312 10313 10316 10318 10316 10315 10320 10324 10325 10323 10319 10318 10320 10323 10327 10328 10330 10335 10338 10339 10341 10343 10345 10350 10355 10353 10351 10354 10357 10358 10361 10361 10357 10356 10360 10362 10364 10367 10370 10373 10376 10377 10378 10379 10379 10380 10383 10386 10388 10390 10392 10395 10398 10399 10401 10402 10403 10404 10406 10406 10407
10325 10321 10319 10316 10314 10317 10322 10316 10311 10321 10331 10331 10326 10317 10307 10304 10307 10307 10307 10313 10313 10307 10302 10301 10301 10301 10301 10302 10304 10302 10301 10304 10310 10314 10312 10308 10306 10309 10313 10317 10318 10318 10322 10325 10326 10329 10331 10333 10338 10341 10338 10338 10343 10346 10348 10352 10352 10347 10346 10351 10352 10353 10355 10358 10363 10366 10366 10367 10367 10365 10367 10371 10374 10376 10378 10381 10383 10386 10387 10388 10389 10389 10390 10391 10391 10393
10314 10311 10307 10305 10304 10304 10306 10306 10305 10310 10320 10323 10314 10302 10297 10300 10300 10295 10296 10303 10303 10296 10292 10292 10292 10291 10290 10289 10288 10288 10288 10290 10297 10302 10299 10294 10296 10300 10302 10304 10306 10308 10310 10311 10313 10317 10319 10322 10327 10327 10324 10326 10334 10339 10340 10342 10343 10339 10338 10341 10345 10345 10344 10346 10351 10354 10355 10357 10355 10353 10355 10360 10363 10366 10368 10369 10371 10373 10375 10376 10376 10376 10377 10378 10379 10380
10304 10301 10295 10293 10296 10294 10291 10294 10295 10298 10308 10312 10299 10288 10291 10294 10290 10285 10286 10291 10293 10287 10282 10282 10282 10281 10280 10278 10276 10276 10275 10277 10285 10289 10284 10280 10285 10288 10287 10290 10295 10297 10297 10299 10302 10307 10310 10313 10316 10316 10315 10320 10329 10332 10331 10331 10331 10331 10330 10333 10337 10337 10337 10338 10339 10342 10345 10346 10344 10343 10346 10350 10352 10355 10357 10358 10359 10362 10363 10363 10363 10363 10364 10365 10367 10368
10295 10292 10286 10284 10288 10286 10279 10280 10283 10287 10295 10297 10286 10278 10282 10283 10278 10275 10275 10280 10284 10279 10273 10272 10272 10270 10270 10268 10265 10264 10264 10267 10273 10274 10270 10270 10273 10274 10276 10280 10283 10283 10285 10289 10293 10298 10302 10306 10309 10310 10311 10316 10321 10322 10321 10320 10320 10320 10322 10325 10327 10329 10329 10329 10330 10333 10335 10334 10333 10335 10339 10341 10342 10344 10344 10346 10348 10351 10351 10351 10351 10351 10352 10354 10356 10356
10283 10281 10276 10274 10278 10277 10271 10267 10270 10276 10281 10281 10275 10270 10269 10268 10268 10266 10265 10269 10272 10268 10265 10264 10260 10258 10257 10255 10254 10254 10255 10258 10262 10261 10258 10260 10262 10263 10266 10269 10270 10272 10277 10280 10284 10288 10292 10296 10300 10302 10304 10307 10309 10309 10309 10309 10309 10311 10313 10315 10317 10320 10321 10322 10324 10325 10324 10323 10324 10328 10330 10332 10333 10333 10334 10336 10339 10339 10339 10339 10340 10340 10341 10343 10345 10345
10272 10268 10265 10264 10266 10266 10261 10255 10258 10265 10268 10266 10262 10258 10254 10253 10256 10257 10257 10258 10257 10256 10254 10251 10248 10247 10245 10243 10244 10246 10245 10247 10251 10251 10248 10249 10252 10255 10257 10258 10260 10264 10268 10272 10276 10280 10283 10287 10291 10293 10295 10296 10297 10298 10297 10297 10300 10304 10305 10306 10308 10311 10313 10316 10318 10316 10312 10314 10318 10320 10321 10323 10323 10324 10326 10327 10328 10328 10328 10329 10330 10330 10331 10333 10334 10334
10263 10259 10257 10256 10255 10253 10250 10245 10247 10253 10255 10251 10247 10244 10241 10241 10243 10243 10245 10244 10242 10240 10239 10237 10236 10235 10234 10233 10235 10237 10237 10239 10241 10241 10239 10240 10244 10246 10247 10249 10252 10256 10261 10265 10269 10272 10275 10279 10281 10283 10285 10287 10288 10288 10288 10289 10294 10297 10298 10299 10301 10303 10307 10310 10309 10305 10304 10308 10311 10312 10313 10314 10314 10316 10318 10317 10317 10318 10318 10319 10321 10322 10322 10324 10324 10324
10254 10251 10251 10249 10245 10242 10240 10238 10240 10241 10240 10238 10234 10230 10230 10232 10231 10230 10233 10232 10227 10224 10224 10225 10225 10223 10223 10225 10226 10228 10229 10230 10231 10233 10233 10233 10236 10238 10239 10242 10244 10248 10253 10257 10259 10262 10265 10269 10272 10274 10276 10278 10279 10279 10280 10283 10288 10290 10291 10293 10295 10297 10300 10300 10297 10296 10298 10301 10303 10303 10305 10307 10308 10308 10308 10307 10309 10310 10310 10312 10313 10314 10314 10315 10315 10315
10245 10242 10241 10240 10237 10232 10230 10232 10234 10230 10226 10226 10225 10220 10218 10220 10220 10220 10223 10221 10215 10213 10213 10214 10214 10214 10214 10217 10219 10220 10221 10221 10224 10226 10226 10226 10228 10231 10232 10234 10237 10241 10245 10247 10249 10253 10257 10261 10265 10267 10269 10270 10270 10271 10273 10278 10281 10282 10283 10287 10289 10291 10292 10289 10287 10289 10292 10293 10294 10295 10297 10300 10300 10299 10299 10300 10302 10303 10304 10304 10305 10305 10306 10306 10306 10306
10236 10232 10229 10228 10227 10223 10222 10225 10226 10220 10215 10215 10215 10211 10208 10210 10211 10212 10212 10210 10205 10203 10205 10205 10206 10206 10207 10210 10212 10211 10212 10214 10216 10218 10218 10219 10221 10223 10225 10228 10231 10233 10236 10239 10242 10246 10250 10254 10257 10259 10261 10263 10262 10263 10267 10271 10273 10274 10277 10281 10283 10284 10283 10280 10280 10283 10285 10285 10287 10289 10290 10291 10291 10291 10293 10294 10296 10296 10297 10297 10297 10297 10298 10298 10298 10297
10226 10221 10216 10215 10214 10213 10215 10218 10214 10209 10208 10206 10203 10200 10199 10201 10203 10202 10199 10197 10195 10196 10198 10199 10199 10199 10200 10203 10204 10203 10204 10206 10208 10209 10211 10212 10214 10217 10219 10221 10223 10226 10231 10233 10236 10239 10244 10247 10249 10250 10253 10255 10255 10258 10261 10263 10265 10268 10272 10275 10276 10275 10274 10273 10274 10276 10278 10279 10281 10282 10283 10283 10283 10285 10287 10288 10289 10290 10289 10289 10289 10290 10290 10290 10290 10290
10217 10211 10204 10200 10200 10202 10207 10209 10202 10198 10200 10198 10193 10190 10190 10192 10195 10191 10187 10187 10188 10189 10192 10192 10191 10192 10194 10195 10196 10196 10196 10199 10200 10202 10204 10206 10208 10211 10213 10214 10216 10220 10224 10227 10229 10233 10237 10240 10242 10244 10247 10248 10249 10252 10254 10256 10258 10263 10267 10268 10268 10267 10267 10268 10268 10270 10272 10273 10274 10275 10276 10277 10277 10279 10281 10282 10283 10283 10282 10282 10283 10283 10283 10283 10283 10283
10206 10201 10195 10189 10189 10192 10196 10197 10190 10186 10188 10187 10183 10182 10181 10183 10184 10182 10179 10179 10180 10181 10184 10184 10184 10185 10187 10188 10188 10188 10189 10192 10194 10196 10198 10200 10202 10205 10206 10208 10211 10214 10217 10220 10223 10226 10230 10233 10236 10239 10240 10241 10243 10246 10248 10250 10253 10258 10261 10261 10260 10260 10260 10262 10263 10265 10265 10265 10266 10268 10271 10272 10272 10273 10275 10276 10277 10277 10276 10276 10276 10276 10276 10276 10276 10276
10190 10189 10187 10182 10182 10185 10186 10183 10178 10176 10177 10176 10173 10174 10175 10174 10174 10174 10172 10172 10173 10174 10176 10176 10177 10179 10180 10180 10181 10182 10183 10185 10188 10190 10192 10194 10196 10199 10200 10202 10205 10208 10211 10214 10217 10220 10223 10226 10229 10232 10233 10234 10237 10240 10242 10244 10248 10252 10254 10254 10253 10253 10255 10257 10258 10258 10258 10258 10260 10263 10265 10265 10266 10268 10269 10270 10271 10271 10270 10269 10269 10270 10270 10270 10270 10270
10176 10178 10177 10174 10176 10178 10175 10170 10167 10167 10168 10167 10165 10167 10168 10167 10166 10166 10165 10165 10166 10167 10169 10169 10171 10173 10173 10173 10175 10176 10177 10180 10182 10184 10186 10189 10191 10193 10194 10196 10199 10202 10205 10208 10211 10214 10217 10220 10223 10225 10227 10228 10231 10234 10236 10238 10242 10246 10246 10246 10247 10248 10249 10251 10251 10250 10252 10254 10256 10257 10258 10259 10261 10263 10264 10265 10265 10265 10264 10264 10263 10264 10265 10265 10265 10265
10165 10168 10168 10165 10166 10166 10162 10159 10158 10159 10161 10159 10157 10158 10159 10159 10159 10158 10158 10158 10160 10161 10163 10164 10165 10166 10166 10167 10169 10170 10172 10175 10177 10179 10181 10184 10186 10188 10190 10192 10195 10198 10201 10204 10207 10210 10212 10214 10217 10219 10221 10223 10226 10228 10231 10233 10237 10239 10240 10240 10241 10242 10243 10244 10244 10245 10247 10249 10250 10252 10254 10255 10256 10258 10259 10259 10259 10259 10259 10258 10258 10259 10260 10260 10260 10260